Simultaneous Nadir Overpasses (SNOs) Predictions

Prediction of SNOs between NOAA-20 and METOP-B Satellite Orbit:

Table of predicted SNOs for the next 14.0 days since TLE Epoch: 10/31/2020
Index Date (NOAA-20) Time (NOAA-20) Lat,Lon (NOAA-20) SZA (NOAA-20 ) Date (METOP-B) Time (METOP-B) Lat,Lon (METOP-B) SZA (METOP-B ) Distance(km) Time Diff (sec)
1 11/08/2020 03:48:10 73.40, 113.27 90.07 11/08/2020 03:49:17 73.36, 115.88 89.97 83.28 67
2 11/08/2020 04:38:53 -73.34, -79.28 89.98 11/08/2020 04:40:01 -73.27, -76.99 90.11 73.60 68
3 11/08/2020 05:29:34 73.11, 88.56 89.78 11/08/2020 05:30:45 73.03, 89.84 89.68 42.20 71
4 11/08/2020 06:20:17 -73.05,-104.00 90.28 11/08/2020 06:21:28 -73.00,-102.92 90.36 35.50 71
5 11/08/2020 07:10:58 72.81, 63.82 89.49 11/08/2020 07:12:12 72.76, 63.92 89.43 5.87 74
6 11/08/2020 08:01:41 -72.75,-128.74 90.57 11/08/2020 08:02:54 -72.77,-128.73 90.55 2.81 73
7 11/08/2020 08:52:27 72.76, 38.55 89.46 11/08/2020 08:53:34 72.74, 38.54 89.44 1.83 67
8 11/08/2020 09:43:11 -72.75,-154.12 90.55 11/08/2020 09:44:16 -72.75,-154.11 90.55 0.49 65
9 11/08/2020 10:33:57 72.76, 13.17 89.48 11/08/2020 10:34:55 72.77, 13.27 89.49 3.52 58
10 11/08/2020 11:24:41 -72.76,-179.50 90.52 11/08/2020 11:25:38 -72.73,-179.49 90.55 2.37 57
11 11/08/2020 12:15:27 72.77, -12.22 89.50 11/08/2020 12:16:17 72.75, -12.12 89.49 3.55 50
12 11/08/2020 13:06:10 -72.71, 155.22 90.55 11/08/2020 13:07:00 -72.71, 155.13 90.55 3.07 50
13 11/08/2020 13:56:56 72.72, -37.49 89.47 11/08/2020 13:57:39 72.73, -37.50 89.49 1.80 43
14 11/08/2020 14:47:40 -72.71, 129.84 90.53 11/08/2020 14:48:22 -72.69, 129.75 90.55 3.46 42
15 11/08/2020 15:38:26 72.72, -62.87 89.50 11/08/2020 15:39:01 72.71, -62.88 89.49 0.78 35
16 11/08/2020 16:29:10 -72.71, 104.46 90.50 11/08/2020 16:29:43 -72.73, 104.47 90.50 1.38 33
17 11/08/2020 17:19:56 72.72, -88.25 89.52 11/08/2020 17:20:23 72.69, -88.26 89.49 3.33 27
18 11/08/2020 18:10:40 -72.72, 79.07 90.48 11/08/2020 18:11:05 -72.71, 79.09 90.49 1.39 25
19 11/08/2020 19:01:26 72.73,-113.64 89.55 11/08/2020 19:01:44 72.73,-113.53 89.54 3.40 18
20 11/08/2020 19:52:09 -72.67, 53.80 90.51 11/08/2020 19:52:27 -72.69, 53.71 90.49 3.40 18
21 11/08/2020 20:42:54 72.68,-138.91 89.52 11/08/2020 20:43:05 72.71,-138.91 89.54 2.84 11
22 11/08/2020 21:33:38 -72.67, 28.42 90.49 11/08/2020 21:33:48 -72.67, 28.33 90.49 2.95 10
23 11/08/2020 22:24:24 72.68,-164.29 89.54 11/08/2020 22:24:27 72.69,-164.29 89.54 0.27 3
24 11/08/2020 23:15:08 -72.68, 3.04 90.46 11/08/2020 23:15:09 -72.70, 3.05 90.44 2.41 1
25 11/09/2020 00:05:54 72.69, 170.32 89.56 11/09/2020 00:05:49 72.67, 170.33 89.54 2.30 5
26 11/09/2020 00:56:38 -72.68, -22.35 90.44 11/09/2020 00:56:31 -72.68, -22.33 90.44 0.69 7
27 11/09/2020 01:47:23 72.64, 145.05 89.53 11/09/2020 01:47:11 72.65, 144.94 89.54 3.51 12
28 11/09/2020 02:38:08 -72.68, -47.73 90.42 11/09/2020 02:37:53 -72.66, -47.71 90.44 2.87 15
29 11/09/2020 03:28:53 72.64, 119.67 89.56 11/09/2020 03:28:33 72.63, 119.56 89.54 3.83 20
30 11/09/2020 04:19:37 -72.64, -73.00 90.45 11/09/2020 04:19:15 -72.64, -73.09 90.44 2.76 22
31 11/09/2020 05:10:23 72.65, 94.28 89.58 11/09/2020 05:09:54 72.66, 94.29 89.59 1.31 29
32 11/09/2020 06:01:07 -72.64, -98.39 90.42 11/09/2020 06:00:36 -72.67, -98.36 90.39 3.45 31
33 11/09/2020 06:51:53 72.65, 68.90 89.60 11/09/2020 06:51:16 72.64, 68.91 89.60 1.27 37
34 11/09/2020 07:42:37 -72.64,-123.77 90.40 11/09/2020 07:41:58 -72.65,-123.74 90.39 1.11 39
35 11/09/2020 08:33:22 72.60, 43.63 89.57 11/09/2020 08:32:38 72.62, 43.53 89.60 3.76 44
36 11/09/2020 09:24:07 -72.65,-149.15 90.38 11/09/2020 09:23:20 -72.63,-149.12 90.39 1.92 47
37 11/09/2020 10:14:52 72.60, 18.24 89.60 11/09/2020 10:14:00 72.60, 18.15 89.60 3.34 52
38 11/09/2020 11:05:36 -72.60,-174.43 90.40 11/09/2020 11:04:42 -72.61,-174.50 90.39 2.93 54
39 11/09/2020 11:56:22 72.61, -7.14 89.62 11/09/2020 11:55:21 72.63, -7.13 89.65 2.35 61
40 11/09/2020 12:47:06 -72.60, 160.19 90.38 11/09/2020 12:46:04 -72.59, 160.12 90.39 2.86 62
41 11/09/2020 13:37:52 72.61, -32.52 89.64 11/09/2020 13:36:43 72.61, -32.51 89.65 0.36 69
42 11/09/2020 14:28:36 -72.60, 134.81 90.36 11/09/2020 14:27:25 -72.62, 134.84 90.34 2.05 71
43 11/09/2020 15:19:20 72.51, -57.69 89.56 11/09/2020 15:18:06 72.54, -57.99 89.60 10.43 74
44 11/09/2020 16:10:03 -72.46, 109.74 90.49 11/09/2020 16:08:50 -72.45, 109.15 90.48 19.69 73
45 11/09/2020 17:00:44 72.21, -82.47 89.27 11/09/2020 16:59:34 72.21, -83.98 89.31 51.38 70
46 11/09/2020 17:51:27 -72.15, 84.96 90.79 11/09/2020 17:50:17 -72.17, 83.27 90.72 57.47 70
47 11/09/2020 18:42:08 71.90,-107.26 88.97 11/09/2020 18:41:01 71.93,-109.85 89.06 89.34 67
48 11/09/2020 19:32:51 -71.85, 60.16 91.08 11/09/2020 19:31:45 -71.85, 57.31 91.02 98.63 66
